TimeHST,TemperatureF,Dew PointF,Humidity,Sea Level PressureIn,VisibilityMPH,Wind Direction,Wind SpeedMPH,Gust SpeedMPH,PrecipitationIn,Events,Conditions,WindDirDegrees,DateUTC
12:17 AM,73.4,64.4,73,30.09,10.0,ENE,4.6,-,N/A,,Partly Cloudy,60,2013-06-13 10:17:00
12:53 AM,75.0,64.9,71,30.11,10.0,Variable,4.6,-,N/A,,Clear,0,2013-06-13 10:53:00
1:53 AM,75.0,64.9,71,30.10,10.0,ENE,5.8,-,N/A,,Clear,70,2013-06-13 11:53:00
2:53 AM,73.9,66.0,76,30.09,10.0,ENE,6.9,-,N/A,,Scattered Clouds,70,2013-06-13 12:53:00
3:53 AM,73.9,64.9,73,30.09,10.0,ENE,8.1,-,N/A,,Clear,60,2013-06-13 13:53:00
4:53 AM,73.0,64.9,76,30.10,10.0,Variable,4.6,-,N/A,,Clear,0,2013-06-13 14:53:00
5:53 AM,73.0,64.9,76,30.12,10.0,Variable,4.6,-,N/A,,Clear,0,2013-06-13 15:53:00
6:53 AM,75.9,64.9,69,30.12,10.0,ENE,6.9,-,N/A,,Clear,70,2013-06-13 16:53:00
7:53 AM,79.0,64.9,62,30.12,10.0,East,8.1,-,N/A,,Clear,80,2013-06-13 17:53:00
8:53 AM,80.1,64.9,60,30.13,10.0,NE,8.1,-,N/A,,Overcast,50,2013-06-13 18:53:00
9:53 AM,82.0,66.0,58,30.13,10.0,NE,8.1,18.4,N/A,,Scattered Clouds,50,2013-06-13 19:53:00
10:53 AM,82.9,64.0,53,30.13,10.0,ENE,9.2,21.9,N/A,,Mostly Cloudy,70,2013-06-13 20:53:00
11:53 AM,86.0,64.9,49,30.12,10.0,East,10.4,20.7,N/A,,Partly Cloudy,80,2013-06-13 21:53:00
12:53 PM,81.0,66.9,62,30.14,9.0,ENE,9.2,25.3,0.00,Rain,Light Rain,70,2013-06-13 22:53:00
1:53 PM,82.9,66.0,56,30.11,10.0,East,9.2,24.2,0.00,,Mostly Cloudy,80,2013-06-13 23:53:00
2:53 PM,80.1,68.0,67,30.11,10.0,East,10.4,24.2,N/A,,Mostly Cloudy,100,2013-06-14 00:53:00
3:53 PM,82.9,68.0,60,30.09,10.0,ENE,11.5,21.9,N/A,,Mostly Cloudy,70,2013-06-14 01:53:00
4:53 PM,81.0,64.9,58,30.09,10.0,ENE,8.1,21.9,N/A,,Partly Cloudy,70,2013-06-14 02:53:00
5:53 PM,80.1,64.9,60,30.09,10.0,East,10.4,18.4,N/A,,Clear,80,2013-06-14 03:53:00
6:53 PM,78.1,64.9,64,30.10,10.0,ENE,10.4,19.6,N/A,,Mostly Cloudy,70,2013-06-14 04:53:00
7:53 PM,75.9,66.0,71,30.12,10.0,ENE,9.2,-,N/A,,Partly Cloudy,70,2013-06-14 05:53:00
8:53 PM,75.9,66.9,74,30.13,10.0,ENE,8.1,-,N/A,,Scattered Clouds,70,2013-06-14 06:53:00
9:53 PM,75.0,66.9,76,30.15,10.0,Variable,4.6,-,N/A,,Partly Cloudy,0,2013-06-14 07:53:00
10:53 PM,75.0,66.9,76,30.15,10.0,Variable,4.6,-,N/A,,Clear,0,2013-06-14 08:53:00
11:53 PM,73.9,66.9,79,30.14,10.0,Variable,4.6,-,N/A,,Clear,0,2013-06-14 09:53:00